Wind_Speed
31 31 30 29 29 29 29 29 30 30 30 29 29 29 29 29 29 29 29 28 28 27 28 30 31 32 33 33 31 29 27 26 27 28 28 27 27 27 27 26 27 27 27 26 26 25 25 24 23 23 22 22 21 21 20 20 20 20 20 19 19 18 18 18 17 17 17 17 17 17 17 18 18 18 18 18 17 17 17 17 18 17 17 17 17 17
31 31 30 29 29 29 29 29 29 29 30 30 30 30 30 30 30 30 29 29 29 30 30 31 33 34 35 34 32 29 27 27 28 29 28 28 27 27 27 28 28 28 27 26 26 25 25 24 23 22 22 21 21 21 20 20 20 20 19 19 19 18 18 18 18 18 18 18 17 17 18 18 18 18 18 18 18 18 18 18 18 18 18 17 17 17
31 31 30 29 29 29 29 29 29 29 29 30 30 30 30 30 30 30 30 30 31 32 32 33 34 35 35 34 31 29 27 28 29 29 28 27 27 27 28 29 29 28 27 26 26 25 25 24 23 22 22 21 21 20 20 20 20 19 19 19 19 19 18 18 18 18 18 18 18 18 18 18 18 18 18 18 18 18 18 19 18 18 18 18 18 17
30 30 30 29 29 29 29 29 29 29 29 30 30 30 30 30 31 31 31 31 32 32 32 33 34 34 34 32 30 28 28 29 29 28 27 27 26 26 28 29 29 28 27 26 26 25 24 23 22 22 21 21 21 20 20 20 20 19 19 19 19 19 19 19 19 19 19 18 18 18 18 18 18 18 18 18 19 19 19 19 19 18 18 18 18 18
29 29 29 29 29 29 29 29 29 29 29 30 30 30 31 31 31 31 31 31 31 32 32 32 32 32 31 30 29 28 29 29 29 28 27 26 26 27 28 28 28 27 26 26 25 25 24 23 22 22 21 21 20 20 20 20 20 20 19 19 19 19 19 19 19 19 19 19 18 18 18 18 18 18 18 19 19 19 19 19 19 18 18 18 18 18
29 29 29 29 29 29 29 29 29 29 29 30 30 30 30 31 31 31 31 31 31 31 31 31 31 30 29 29 29 29 30 31 30 29 28 27 26 27 28 28 27 26 26 26 25 24 24 23 22 21 21 20 20 20 20 20 20 20 19 19 19 19 19 19 19 19 19 19 19 19 18 18 19 19 19 19 19 19 19 19 19 18 18 18 18 18
28 28 28 29 29 29 29 29 29 29 29 29 30 30 30 30 30 31 31 30 30 30 30 29 29 28 28 29 30 31 32 33 32 30 29 27 27 27 27 27 27 26 26 25 25 24 23 22 22 21 21 20 20 20 20 20 20 20 20 20 20 19 19 19 19 19 19 19 19 19 19 19 19 19 19 19 19 19 19 19 19 19 19 19 18 18
28 28 28 28 29 29 29 29 29 29 29 29 29 29 29 30 30 30 30 30 30 29 29 28 28 28 28 30 32 33 34 34 33 31 29 28 28 27 27 27 26 26 25 25 24 23 23 22 21 21 20 20 20 20 20 20 20 20 20 20 20 20 20 20 19 19 19 19 19 19 19 19 19 19 19 19 19 19 19 19 19 19 19 19 19 19
28 28 28 28 28 29 29 29 28 28 28 28 28 28 28 29 29 29 29 29 29 28 28 29 30 30 31 32 34 35 35 34 32 30 29 28 28 27 27 27 26 26 25 25 24 23 22 22 21 21 20 20 20 20 20 20 20 20 20 20 20 20 20 20 20 20 20 19 19 19 19 19 19 19 19 19 19 19 19 19 19 19 19 19 19 19
28 28 28 28 28 28 28 28 28 27 27 27 27 28 28 28 29 28 28 27 27 28 29 31 32 33 33 34 34 34 33 32 30 29 28 28 28 28 27 27 26 25 25 24 23 22 22 21 21 20 20 20 20 20 20 20 20 20 20 20 20 20 20 20 20 20 20 20 20 20 20 20 20 20 19 19 19 19 19 19 19 19 19 19 19 19
28 27 28 28 28 28 28 28 28 27 27 27 27 27 27 28 28 27 26 26 27 29 30 32 33 32 32 32 32 32 31 30 29 29 28 29 28 28 27 26 26 25 25 24 23 22 21 21 20 20 20 20 20 20 20 20 20 20 20 20 20 20 20 20 20 20 20 20 20 20 20 20 20 20 19 19 19 19 19 19 19 19 19 19 19 19
28 28 28 28 28 28 28 28 27 27 27 28 28 28 27 27 27 27 26 27 28 29 30 31 31 31 31 30 30 30 30 30 29 29 29 29 28 28 27 26 25 25 24 23 22 21 21 21 20 20 20 20 20 20 20 20 20 20 20 20 20 20 20 20 20 20 20 20 20 20 20 20 20 20 19 19 19 19 19 19 20 20 19 19 19 19
28 28 28 28 28 28 28 27 27 27 28 29 29 30 29 28 28 28 28 28 29 30 31 31 31 31 31 31 31 31 31 30 30 30 29 29 28 27 26 26 25 24 23 22 21 21 21 20 20 20 20 20 20 20 20 20 20 20 20 20 20 20 20 20 20 20 20 20 20 20 20 20 20 20 20 20 20 20 20 20 20 20 20 19 19 19
29 29 29 29 29 28 28 27 27 28 29 30 31 32 32 31 30 30 30 30 31 32 33 34 34 34 34 34 34 33 32 31 31 30 29 28 27 26 26 25 24 23 22 21 21 20 20 20 20 20 20 20 20 20 20 20 20 20 20 20 20 20 20 20 20 20 20 20 20 20 20 20 20 20 20 20 20 20 20 20 20 20 20 20 19 19
29 29 30 30 29 29 29 29 29 30 31 32 33 34 34 33 32 31 31 31 32 33 34 35 36 36 36 35 35 34 33 31 30 29 28 27 26 26 25 24 23 22 21 21 20 20 20 20 20 20 20 20 20 20 20 20 20 20 20 20 20 20 20 20 20 20 20 20 20 20 20 20 20 20 20 20 20 20 20 20 20 20 20 20 20 20
30 30 30 30 30 30 30 30 30 31 32 33 34 34 33 32 31 30 30 30 31 32 33 34 35 35 35 34 34 33 31 30 29 27 26 26 25 25 24 23 22 21 21 20 20 20 20 19 19 19 19 20 20 20 20 20 20 20 20 20 20 20 20 20 20 20 20 20 20 20 20 20 20 20 20 20 20 20 20 20 20 20 20 20 20 20
31 31 31 31 31 31 30 31 31 32 32 32 32 32 31 30 29 29 28 29 29 31 32 33 34 34 33 32 31 30 29 28 27 26 25 25 24 24 23 22 21 20 20 19 19 19 19 19 19 19 19 19 20 20 20 20 20 20 20 20 20 20 20 20 20 20 20 20 20 20 20 20 20 20 20 20 20 20 20 20 20 20 20 20 20 20
32 32 32 32 32 31 31 31 31 31 31 30 30 29 29 28 28 28 27 28 29 30 30 31 31 31 30 29 28 27 27 27 26 25 24 24 23 22 22 21 20 19 19 19 19 19 19 19 19 19 19 19 19 19 19 19 19 19 19 20 20 20 20 20 20 20 20 20 20 20 20 20 20 20 20 20 20 20 20 20 20 20 20 20 20 20
32 32 32 32 32 32 31 31 31 31 30 29 28 27 28 28 28 28 28 29 29 29 29 29 29 28 27 26 26 26 26 26 25 24 23 22 22 21 21 20 19 19 18 18 19 19 19 19 19 19 19 19 19 19 19 19 19 19 19 20 20 20 20 20 20 20 20 20 20 20 20 20 20 20 20 21 21 21 21 21 21 21 21 21 21 21
32 32 32 32 32 32 31 31 31 30 29 28 27 27 28 29 29 30 30 30 29 28 28 27 26 25 25 24 25 25 25 24 23 22 21 21 20 20 20 19 18 18 18 18 19 19 19 19 19 19 18 18 18 18 18 19 19 19 19 20 20 20 20 20 20 20 20 20 20 20 20 20 20 20 21 21 21 21 21 21 21 21 21 21 21 21
32 32 32 32 32 32 31 31 30 29 29 28 28 28 29 30 31 31 31 30 29 27 26 25 24 24 23 23 24 24 24 23 22 21 20 20 19 19 19 18 18 18 18 18 18 19 18 18 18 18 18 18 18 18 18 18 19 19 19 19 20 20 20 20 20 20 20 20 20 20 21 21 21 21 21 21 21 21 21 21 21 21 21 21 21 21
32 32 32 32 32 32 31 31 30 30 30 29 29 30 31 31 32 31 30 29 27 26 25 24 23 23 23 23 23 23 22 22 21 20 19 19 19 19 18 18 18 17 18 18 18 18 17 17 17 17 17 17 17 17 18 18 18 19 19 19 19 19 19 20 20 20 20 20 20 20 20 21 21 21 21 21 21 21 21 21 21 22 22 22 22 22
32 32 32 32 32 32 31 31 31 30 30 30 30 31 31 31 31 30 28 27 26 25 24 23 23 23 23 23 23 22 21 20 20 19 18 18 18 18 18 18 17 17 17 17 17 17 16 16 16 16 16 17 17 17 17 18 18 18 18 18 18 19 19 19 19 19 20 20 20 20 20 20 21 21 21 21 21 21 21 21 22 22 22 22 22 22
32 32 32 32 31 31 31 31 31 31 31 31 30 30 30 30 29 28 27 26 25 24 24 23 23 23 22 22 21 21 20 19 19 18 18 18 18 18 17 17 17 16 17 17 16 16 15 15 15 16 16 16 17 17 17 17 17 17 18 18 18 18 18 18 18 19 19 19 19 20 20 20 20 21 21 21 21 21 21 21 21 22 22 22 22 22
32 32 32 32 31 31 31 31 31 31 30 30 29 29 28 28 27 26 25 25 25 24 24 23 22 22 21 21 20 20 19 19 18 18 17 17 17 17 17 16 16 16 16 16 16 15 15 15 16 16 16 17 17 17 17 17 17 17 17 17 17 17 17 18 18 18 18 19 19 19 20 20 20 20 20 20 21 21 21 21 21 21 22 22 22 22
33 33 32 32 31 31 31 30 30 30 29 29 28 27 27 26 25 25 24 24 24 23 23 22 21 21 20 20 19 19 19 18 18 18 17 17 17 17 16 16 16 15 15 15 15 15 15 15 16 16 17 17 17 17 17 17 17 16 16 16 16 17 17 17 17 18 18 18 19 19 19 20 20 20 20 20 20 20 20 21 21 21 21 21 22 22
33 33 32 32 31 31 30 29 29 28 28 27 26 26 25 24 24 24 24 24 23 22 22 21 20 20 19 19 19 19 18 18 18 17 17 17 16 16 16 16 15 15 15 15 15 15 15 16 16 17 17 17 17 17 17 16 16 16 16 16 16 16 17 17 17 18 18 19 19 19 19 19 19 20 20 20 20 20 20 20 20 21 21 21 22 22
33 33 32 32 31 30 29 29 28 27 27 26 25 24 24 24 24 24 23 23 22 21 21 20 19 19 19 19 18 18 18 18 17 17 16 16 15 15 15 15 15 15 15 15 15 16 16 16 17 17 17 17 17 16 16 16 16 16 16 16 16 17 17 18 18 19 19 19 19 19 19 19 19 19 20 19 20 20 20 20 20 21 21 21 22 22
33 33 32 31 30 29 28 28 27 26 25 24 24 24 24 24 24 23 22 22 21 20 20 19 19 19 19 18 18 18 18 17 17 16 16 15 15 15 15 15 15 15 15 15 16 16 17 17 17 17 17 16 16 16 16 16 16 16 16 17 17 18 18 19 19 19 20 20 20 20 20 20 20 20 20 20 20 20 20 20 21 21 21 22 22 23
33 32 31 30 29 28 27 26 26 25 24 24 24 24 24 24 23 22 22 21 20 20 19 19 19 19 18 18 18 17 17 17 16 16 15 14 15 15 15 15 15 15 16 16 16 16 16 17 17 17 16 16 16 16 16 16 17 17 17 18 18 19 19 20 20 20 20 20 20 20 20 20 20 20 20 20 20 20 20 21 21 22 22 22 23 23
32 31 30 29 28 27 26 25 25 24 24 24 25 24 23 22 21 21 21 20 20 19 19 19 18 18 18 18 17 16 16 16 16 16 15 14 15 15 15 15 15 16 16 16 16 16 16 16 17 17 17 16 16 17 17 17 17 18 18 19 19 19 20 20 20 20 20 20 20 20 20 20 20 20 20 20 20 21 21 21 22 22 22 23 23 24
31 30 29 28 27 26 25 24 24 24 25 25 24 23 22 21 21 20 20 20 19 19 19 18 18 18 18 17 16 16 16 16 16 16 15 15 15 16 16 16 16 17 17 17 16 16 16 16 17 17 17 17 17 18 18 18 19 19 19 19 19 20 20 20 20 20 20 20 20 20 20 20 20 20 20 21 21 21 21 21 22 22 23 23 24 24
30 29 28 27 26 25 24 24 25 25 25 24 23 22 21 20 20 20 20 20 19 19 18 18 18 18 17 17 17 16 17 17 17 16 16 16 16 16 16 17 17 17 17 17 16 16 16 17 17 18 18 18 18 19 19 19 20 20 20 20 20 20 20 20 20 20 20 20 20 20 20 20 21 21 21 21 21 21 22 22 22 23 23 24 24 25
29 28 27 26 25 24 24 25 25 25 24 23 21 21 21 20 20 20 20 19 19 19 18 19 19 18 18 17 17 17 17 18 18 18 17 17 17 17 17 17 17 17 17 17 17 17 17 18 18 18 19 19 19 20 20 20 20 20 20 20 19 20 20 20 20 20 20 20 20 21 21 21 21 21 21 22 22 22 23 23 23 24 24 24 25 26
27 26 25 25 25 25 25 25 25 23 22 21 21 21 21 20 20 20 19 19 19 19 19 19 19 19 19 18 18 18 18 19 19 19 18 17 17 17 17 17 17 17 17 17 17 18 18 19 19 19 20 20 20 20 20 20 20 20 19 19 19 19 19 19 20 20 20 20 21 21 22 22 22 22 22 23 23 23 24 24 24 25 25 25 26 26
25 24 24 24 25 26 25 24 23 22 21 21 21 21 21 20 19 19 19 19 19 20 20 20 20 20 20 19 19 19 19 19 19 19 19 18 18 18 17 17 17 17 17 18 18 19 19 19 20 20 20 20 20 20 20 19 19 19 19 19 19 19 19 19 19 20 20 21 21 22 22 23 23 23 23 24 24 25 25 25 25 26 26 26 26 27
24 24 24 25 26 25 24 23 22 21 21 21 21 21 20 20 19 19 20 20 20 21 21 21 21 20 20 20 20 20 20 20 20 19 19 18 18 18 17 18 18 18 18 19 19 20 20 20 21 21 20 20 20 19 19 18 18 18 18 18 18 19 19 19 20 20 20 21 22 22 23 23 24 24 24 25 25 25 26 26 26 27 27 27 27 27
24 25 25 25 25 23 22 22 21 21 21 21 21 20 20 20 20 20 21 21 21 21 21 21 21 20 20 20 20 20 20 20 20 19 19 18 18 18 18 18 18 19 19 20 20 20 21 21 21 20 20 19 19 18 18 18 18 18 18 18 18 19 19 19 20 20 21 21 22 22 23 24 24 24 25 25 25 26 26 27 27 27 27 27 27 27
25 25 25 24 23 22 22 22 22 21 21 21 20 20 20 21 21 21 22 22 22 22 21 21 21 20 20 20 20 20 20 20 19 19 19 18 18 18 18 19 19 20 20 21 21 21 21 21 20 20 19 18 18 18 17 18 18 18 18 18 19 19 19 20 20 20 21 21 22 22 23 24 24 25 25 25 26 26 26 27 27 27 27 27 27 27
25 25 24 23 22 22 22 22 22 22 21 21 21 21 21 21 22 22 22 22 22 22 22 21 21 21 20 20 20 20 19 19 19 19 18 18 18 19 19 19 20 20 21 21 21 21 21 20 20 19 18 18 17 17 18 18 18 18 18 19 19 19 19 20 20 20 21 21 22 22 23 24 25 25 26 26 26 27 27 27 27 28 28 27 27 27
24 24 23 23 23 23 22 22 22 22 22 22 22 22 22 22 22 22 22 22 22 21 21 21 21 20 20 20 20 19 19 19 19 19 19 19 19 20 20 20 21 21 21 21 21 21 20 20 19 18 17 17 17 18 18 18 19 19 19 19 19 19 20 20 20 20 21 21 22 23 23 24 25 26 26 27 27 27 28 27 28 28 28 27 27 27
24 23 23 23 23 23 23 23 23 23 22 22 22 22 22 22 22 22 22 21 21 21 20 20 20 20 20 20 20 20 20 20 20 19 20 20 20 20 21 21 22 22 22 21 21 20 20 19 18 17 17 17 18 18 19 19 19 19 19 19 20 20 20 20 20 20 21 21 22 23 24 25 26 26 27 27 28 28 28 28 28 28 27 27 27 27
23 23 23 23 23 23 23 23 23 23 23 23 23 23 23 22 22 22 21 21 20 20 20 20 20 20 20 20 20 20 20 21 20 20 20 20 21 21 22 22 22 22 22 21 20 20 19 18 17 17 17 18 18 18 19 19 20 20 20 20 20 20 20 20 21 21 21 22 23 24 25 25 26 27 27 28 28 28 28 28 28 28 27 27 27 26
24 24 24 24 24 24 24 24 24 24 23 23 23 23 22 22 22 21 21 20 20 20 20 20 20 21 21 21 21 21 21 21 21 21 21 21 21 22 22 22 22 22 21 21 20 19 18 18 17 18 18 18 18 19 19 19 20 20 20 20 20 21 21 21 22 22 22 23 23 24 25 26 26 27 27 27 27 27 27 27 27 27 27 27 27 26
24 24 24 24 24 24 24 24 24 24 23 23 23 22 22 21 21 21 20 20 21 21 21 21 21 21 21 22 22 21 21 21 21 21 21 21 22 22 22 22 22 21 21 20 19 18 18 18 18 18 18 18 18 19 19 20 20 20 21 21 21 22 22 22 23 23 23 24 24 25 25 25 26 26 26 26 27 27 27 27 27 27 27 27 27 26
24 24 24 25 25 25 24 24 24 23 23 23 22 22 21 21 21 21 21 21 21 21 22 22 22 22 22 22 22 21 21 21 21 21 21 22 22 22 22 22 21 21 20 19 19 18 18 18 18 18 18 19 19 19 20 20 21 21 22 22 23 23 23 24 24 24 24 25 25 25 25 25 25 25 25 26 26 26 26 26 26 26 27 27 26 26
24 25 25 25 25 25 25 24 24 23 23 22 22 21 21 21 21 21 21 22 22 22 23 23 23 22 22 22 21 21 21 21 21 22 22 22 21 21 21 21 21 20 19 19 18 18 18 18 19 19 19 19 19 20 20 21 21 22 23 23 24 24 25 25 25 25 25 25 25 25 25 25 25 25 25 25 25 26 26 26 26 26 26 26 26 26
25 26 26 26 25 25 25 24 23 23 22 22 21 21 21 21 21 22 22 22 23 23 23 22 22 22 21 21 21 21 21 21 22 22 22 22 21 21 21 21 20 20 19 19 19 19 19 19 19 19 20 20 20 21 22 22 23 23 24 24 25 25 26 26 26 26 26 26 26 26 25 25 25 24 25 25 25 25 26 26 26 26 26 26 26 26
26 26 26 26 26 25 24 24 23 23 22 22 22 22 22 22 22 22 22 22 22 22 22 21 21 21 21 21 21 22 22 22 22 22 22 22 22 21 21 21 20 20 20 19 20 20 20 20 20 21 21 22 22 22 23 24 24 25 25 25 26 26 26 27 27 27 26 26 26 26 26 25 25 24 24 24 25 25 26 26 26 26 26 26 26 26
27 27 26 26 25 25 24 24 23 23 23 22 22 22 22 22 22 22 22 22 22 21 21 21 21 21 22 22 22 22 22 22 22 22 22 22 22 22 21 21 20 20 20 20 21 21 21 21 22 23 23 24 24 24 24 25 25 26 26 27 27 27 27 27 27 27 27 27 26 26 26 25 25 25 24 24 25 25 25 26 26 26 26 26 26 26
27 27 26 26 25 25 24 24 23 23 23 23 23 22 22 22 21 21 21 21 21 22 22 22 22 22 23 23 23 23 23 23 23 23 23 23 22 22 21 21 21 21 21 21 22 22 22 22 23 23 25 25 25 25 25 26 26 27 27 27 28 28 28 28 28 28 27 27 27 27 26 26 25 25 25 24 24 25 25 26 26 27 27 27 27 27
Wind_Direction
276 276 275 274 273 272 271 270 270 270 270 270 269 268 268 267 265 263 262 260 257 254 252 253 255 258 261 264 265 265 264 265 265 263 260 256 255 259 266 276 283 286 286 285 284 282 280 277 274 271 269 267 265 262 259 255 252 248 246 244 244 244 245 246 248 250 251 251 251 250 250 251 253 254 255 256 257 258 258 259 259 258 258 258 258 258
276 276 275 274 273 272 271 270 269 269 269 268 267 266 265 264 262 261 260 258 256 254 252 252 255 258 261 264 264 264 263 265 265 263 258 255 256 262 271 279 283 284 283 282 281 280 278 275 272 269 267 265 263 260 257 253 250 247 245 244 244 245 247 249 251 252 253 254 254 254 254 255 255 256 256 257 258 258 259 259 259 259 259 259 259 259
275 276 275 274 273 272 271 270 269 268 267 266 265 264 263 262 260 259 257 256 255 255 254 254 255 258 260 262 262 262 263 264 263 260 256 255 259 267 276 282 283 282 281 279 278 277 275 272 270 267 265 263 261 258 255 251 248 246 245 245 245 247 249 251 253 254 255 256 256 257 257 257 257 256 257 257 258 258 259 259 259 259 259 259 259 260
275 275 275 274 273 271 270 269 268 267 265 264 263 262 261 260 258 257 256 255 255 255 256 257 258 259 260 261 260 260 261 262 260 257 255 258 265 274 280 282 282 280 278 277 276 275 273 270 268 266 263 261 259 256 252 249 247 245 245 245 247 249 251 253 255 256 257 258 258 258 258 257 257 257 257 257 258 258 259 259 259 260 260 260 260 260
274 274 274 273 272 270 269 268 267 266 265 263 262 261 260 259 258 257 255 255 255 255 257 258 259 260 260 259 258 258 259 258 257 256 257 263 272 279 281 281 280 277 276 275 274 273 271 268 266 264 262 259 256 253 250 248 247 246 246 247 249 251 253 255 256 258 259 259 259 259 258 258 257 257 257 257 258 258 259 259 260 260 260 260 260 260
274 274 273 273 271 270 269 268 267 266 265 264 262 261 260 259 258 257 255 255 255 256 257 258 259 260 260 259 258 257 257 256 256 257 261 269 277 281 282 280 277 275 274 273 272 271 269 266 264 262 260 257 254 251 249 247 246 247 248 249 251 253 255 256 258 259 259 260 260 260 259 258 258 257 257 258 258 258 259 259 260 260 260 260 260 260
273 272 272 272 271 270 270 269 268 268 267 265 264 262 261 260 258 257 255 255 256 256 257 258 259 260 260 259 258 257 255 255 256 259 265 274 280 283 281 278 275 273 271 271 270 268 266 264 262 260 258 255 252 249 247 246 246 247 248 250 252 254 255 257 258 259 260 260 260 260 259 259 258 258 258 258 258 258 259 259 259 259 259 260 260 260
271 271 270 270 270 271 271 270 270 269 268 267 265 263 261 259 258 257 256 257 257 258 259 259 260 261 261 260 258 256 255 255 257 262 270 278 283 283 280 276 273 271 269 268 267 266 264 262 260 258 256 253 250 248 247 246 246 247 249 250 252 254 255 256 258 259 259 260 260 260 259 259 258 258 258 257 258 258 258 258 258 258 258 259 259 259
270 269 269 269 269 270 270 270 269 268 268 267 265 263 261 259 257 256 256 258 259 259 259 259 259 259 260 259 257 256 255 256 259 266 275 281 283 281 278 274 271 269 267 266 265 263 261 260 258 255 253 251 249 248 247 246 247 248 249 251 252 253 255 256 257 258 258 259 259 259 259 258 258 257 257 257 257 257 257 257 257 257 257 258 258 259
269 269 269 269 269 269 269 269 268 267 266 266 265 264 263 260 258 256 256 257 258 258 256 254 253 253 253 254 254 254 255 258 264 272 279 283 282 278 274 271 268 267 266 264 263 261 259 257 255 253 251 249 248 247 247 247 248 249 251 252 253 254 255 256 257 257 258 258 258 258 258 258 257 257 257 256 256 256 256 256 256 256 256 257 257 258
270 270 271 270 270 270 271 271 271 270 269 268 267 266 265 262 260 257 255 256 256 254 252 249 248 247 248 249 251 254 258 264 272 278 281 281 278 275 271 268 266 265 264 262 260 259 257 255 252 250 249 247 247 247 247 248 249 250 251 252 253 254 255 256 257 257 257 258 258 258 257 257 257 256 256 255 255 255 255 255 255 255 256 256 257 258
271 272 272 273 273 273 274 275 275 274 273 272 270 269 267 264 261 257 253 252 252 252 250 248 247 248 249 252 255 260 266 272 278 280 280 278 274 270 267 265 263 262 261 260 258 256 254 253 251 249 248 247 247 247 248 249 250 251 252 253 254 255 256 256 257 257 257 257 257 257 257 257 256 256 256 255 255 255 254 254 255 255 256 256 257 258
272 273 274 274 275 275 275 275 273 272 271 270 269 269 269 267 264 259 253 249 249 250 251 252 253 254 257 260 265 270 274 278 279 279 276 273 270 266 264 262 261 260 259 257 255 254 252 251 249 249 248 248 248 249 249 250 251 252 253 253 254 255 256 256 256 257 257 257 257 257 257 257 256 256 255 255 255 254 254 254 255 255 256 257 258 258
273 274 274 275 274 274 273 270 267 263 262 263 265 267 269 268 265 261 256 251 249 249 251 254 257 260 263 266 270 274 277 277 276 274 271 268 265 263 261 260 259 258 256 254 253 251 250 249 248 248 248 249 249 250 251 252 253 253 254 254 255 255 256 256 256 257 257 257 257 256 256 256 256 255 255 255 254 254 254 255 255 256 256 257 258 259
274 274 274 274 273 271 269 267 263 260 259 259 262 264 266 266 265 262 258 255 252 251 252 254 258 261 264 267 270 272 273 272 271 268 266 263 261 260 259 258 256 255 253 251 250 249 248 248 248 248 249 250 251 252 253 254 254 255 255 255 256 256 256 256 256 256 256 256 256 256 255 255 255 255 254 254 254 254 254 255 256 256 257 258 258 259
274 274 274 274 272 270 267 265 263 260 259 259 260 261 263 264 263 262 260 258 256 255 255 257 259 261 264 266 267 268 268 267 265 263 260 259 258 257 256 255 254 252 250 249 248 247 247 247 248 248 250 251 252 253 254 255 255 256 256 256 257 257 257 257 256 256 256 256 255 255 254 254 254 253 253 253 254 254 254 255 256 256 257 258 258 259
274 274 273 272 271 269 267 265 263 262 260 260 259 260 261 262 262 262 261 260 259 258 258 259 260 262 264 264 264 264 263 261 260 258 256 256 255 255 253 252 251 249 247 247 246 246 247 248 248 250 251 252 253 254 255 255 256 256 257 257 257 257 257 257 256 256 256 255 255 254 254 253 253 253 253 253 254 254 255 255 256 257 258 258 259 259
273 272 272 271 269 268 266 264 263 262 261 260 259 259 260 261 262 263 263 263 263 262 262 262 261 261 261 261 260 259 258 257 256 255 254 253 253 252 250 249 247 246 246 246 246 247 248 248 250 251 252 252 253 254 255 256 256 257 257 257 257 257 257 257 257 256 256 255 255 254 254 253 253 253 253 254 254 255 255 256 257 258 258 259 259 260
272 271 270 269 268 266 265 263 262 261 260 259 258 257 258 260 262 264 265 265 265 264 264 262 261 259 258 256 256 255 254 254 254 253 251 250 249 248 247 246 245 245 245 246 247 248 249 250 250 251 252 253 253 254 255 255 256 256 257 257 257 257 257 257 257 256 256 255 255 255 254 254 254 254 254 255 255 256 256 257 258 259 259 259 260 260
271 270 268 267 266 265 264 263 262 261 259 257 256 255 255 257 260 262 263 265 265 264 262 260 258 256 254 253 253 253 252 252 252 251 249 247 246 245 244 244 244 244 245 246 248 249 249 250 251 251 252 252 253 254 254 255 255 256 256 256 257 257 257 257 257 256 256 256 255 255 255 255 255 255 256 256 257 257 258 258 259 259 259 260 260 260
269 268 267 267 266 264 263 262 261 259 257 255 254 253 253 255 257 259 262 263 263 262 259 257 254 253 251 251 251 251 251 250 250 248 245 243 242 242 242 243 243 244 245 247 248 249 249 250 251 251 252 253 253 254 254 255 255 255 256 256 256 257 257 257 257 256 256 256 256 256 256 256 256 256 257 257 258 258 259 259 259 259 260 260 260 260
268 267 266 265 265 264 263 262 260 258 257 255 252 251 252 254 256 258 260 260 259 258 256 253 251 250 249 249 249 248 248 247 246 244 241 240 240 240 241 242 243 244 245 247 248 249 249 250 251 252 253 254 254 254 255 255 255 255 255 256 256 256 256 257 256 256 256 256 256 256 256 256 257 257 257 258 258 258 259 259 259 259 260 260 260 260
268 267 265 264 263 263 262 261 259 258 257 255 253 253 253 254 255 256 256 256 256 254 252 251 249 248 247 247 246 245 244 243 242 240 238 238 238 240 241 242 243 244 245 246 247 248 250 251 252 254 254 255 255 255 255 255 255 256 256 256 256 256 256 257 256 256 256 257 257 257 257 257 257 257 258 258 258 258 258 259 259 259 259 260 260 260
267 266 265 264 263 262 261 260 259 258 256 255 254 253 253 253 253 253 253 253 253 252 250 249 247 246 245 244 243 242 240 239 238 238 237 237 238 240 241 242 242 243 244 245 247 248 250 252 254 255 255 256 256 256 256 256 256 256 256 256 256 257 257 257 257 257 257 257 257 257 258 258 258 258 258 258 258 258 258 259 259 259 259 260 260 260
267 266 265 263 262 261 260 259 258 257 255 254 253 251 250 250 250 250 250 251 251 249 248 246 244 243 241 240 239 238 237 236 236 236 236 237 238 240 241 241 241 242 243 245 247 249 251 253 254 255 256 256 256 256 256 256 256 257 257 257 257 257 257 257 257 257 258 258 258 258 258 258 258 258 258 258 258 258 258 259 259 259 260 260 260 260
266 265 264 263 262 261 260 259 257 255 253 252 250 248 247 247 247 247 248 248 247 246 244 243 241 239 237 236 235 234 234 234 235 236 236 237 237 238 239 240 239 240 243 245 248 250 252 253 254 255 256 256 256 256 256 257 257 257 257 257 257 258 258 258 258 258 258 258 258 258 258 258 258 258 258 258 258 258 259 259 259 260 260 261 261 261
266 265 264 263 262 261 259 257 255 253 251 248 246 245 244 244 245 245 245 245 244 242 240 238 236 234 233 232 232 232 233 234 234 235 235 235 235 235 237 238 238 240 243 246 249 251 252 253 254 255 255 256 256 256 257 257 257 258 258 258 259 259 259 259 259 259 259 259 258 258 258 258 258 258 258 258 258 259 259 259 260 260 261 261 262 262
265 264 263 262 261 260 258 256 253 250 247 245 243 242 242 242 243 243 243 241 239 237 234 232 230 230 230 230 230 231 232 233 233 233 233 232 231 232 234 236 238 241 244 247 250 252 253 254 254 254 255 255 256 257 257 258 258 259 259 260 260 261 261 260 260 260 259 259 259 258 258 258 258 258 258 259 259 259 260 260 260 261 261 262 262 263
264 262 262 261 260 258 256 253 250 247 245 242 241 240 240 241 241 240 238 236 234 231 229 227 227 227 227 228 229 230 231 231 231 231 230 229 229 230 233 236 239 243 246 249 251 253 254 254 254 254 255 256 256 257 258 259 260 260 261 261 261 261 261 261 261 260 260 260 259 259 259 259 259 259 259 259 259 260 260 260 261 261 262 262 263 263
262 261 260 259 257 255 252 249 247 244 242 240 239 239 239 239 238 236 233 231 229 226 225 225 224 225 226 227 228 228 229 229 229 229 229 228 229 231 235 238 242 245 248 250 252 253 254 255 255 255 256 256 257 258 259 260 261 261 261 262 262 262 262 262 261 261 261 260 260 260 259 259 259 259 259 259 260 260 260 261 262 262 263 263 263 264
260 259 258 256 254 251 248 246 243 241 239 238 238 237 236 235 233 230 228 226 224 223 222 222 223 223 224 225 225 226 227 228 229 230 230 229 231 234 237 240 243 246 248 249 251 252 254 255 256 256 257 258 259 259 260 261 261 261 261 262 262 262 262 262 262 261 261 260 260 259 259 259 259 259 259 259 260 260 261 262 262 263 263 264 264 264
258 256 255 253 250 247 244 242 240 238 238 237 236 234 232 229 227 225 223 222 221 220 220 220 221 221 222 222 223 224 226 228 230 232 233 233 235 238 240 241 243 246 248 248 249 250 252 254 256 257 258 259 259 260 260 261 261 261 261 261 262 262 262 262 261 261 261 260 259 259 259 258 258 259 259 260 261 262 262 263 264 264 265 265 265 265
255 253 251 249 246 243 240 238 237 236 236 234 232 229 226 224 222 221 220 219 219 218 218 219 219 220 220 221 222 224 227 230 233 235 236 237 238 240 241 242 242 244 246 248 249 250 251 253 255 257 259 259 260 260 260 261 261 261 261 261 261 261 261 261 261 261 260 260 259 259 258 259 259 259 260 261 262 263 264 265 266 266 267 267 267 267
251 249 247 244 241 239 237 235 234 234 232 229 226 223 220 219 218 218 217 217 217 217 217 217 217 218 220 221 223 226 230 233 236 238 239 239 239 240 241 241 242 243 246 248 250 252 253 254 255 257 258 259 259 259 260 260 260 260 260 261 261 261 261 261 261 261 260 260 260 260 260 260 260 261 262 263 264 265 266 267 267 268 268 268 268 268
247 244 241 239 237 235 234 233 231 229 226 223 220 218 217 216 216 216 216 216 216 216 216 216 217 218 219 221 224 227 230 234 237 239 239 239 239 240 240 241 243 244 247 249 251 253 254 255 256 256 257 258 258 258 258 259 259 260 260 260 261 261 261 262 262 262 262 262 262 262 262 262 263 263 264 265 266 267 267 268 268 269 269 269 269 269
241 238 235 234 233 232 230 228 225 222 219 217 215 215 214 214 214 214 215 215 215 215 214 215 216 217 220 222 224 227 230 234 236 237 238 238 239 240 241 243 245 247 248 250 252 253 254 255 256 256 256 257 257 257 257 257 258 259 260 261 261 262 263 263 264 264 264 264 265 265 265 265 265 266 266 267 267 268 269 269 269 269 269 269 269 269
235 232 231 230 229 227 224 221 218 215 214 213 213 212 213 213 214 214 215 215 214 214 213 213 214 217 219 223 225 228 230 233 235 236 237 238 240 241 243 245 247 249 250 251 253 254 254 255 255 256 256 256 256 256 257 257 258 259 261 262 263 264 265 265 266 266 266 267 267 268 268 268 268 268 269 269 269 269 270 270 270 270 270 269 269 269
230 229 227 226 224 220 216 214 212 212 211 211 211 211 212 213 213 214 214 214 213 213 213 213 215 216 219 221 224 227 229 232 234 236 237 239 241 243 245 247 249 251 252 252 253 254 254 255 255 255 255 255 255 256 257 259 260 261 262 264 265 266 267 268 268 269 269 269 269 270 270 271 271 271 271 271 271 271 271 271 271 270 270 269 268 268
227 225 223 220 216 213 210 210 210 210 210 210 211 212 212 213 213 213 213 212 212 212 213 214 216 217 219 221 223 226 228 231 233 236 238 240 243 245 247 249 250 252 252 253 254 254 255 255 254 254 254 254 255 256 258 260 262 264 265 266 268 269 269 270 271 271 271 271 272 272 272 273 273 273 274 273 273 273 272 272 271 270 270 269 268 267
223 221 217 213 210 208 208 208 209 209 210 210 211 212 212 212 212 212 212 212 213 213 214 216 217 219 221 222 224 226 229 231 234 237 239 241 244 246 248 249 251 252 253 254 254 254 254 254 253 253 253 255 256 259 260 262 264 266 267 269 270 271 271 272 272 273 273 273 274 274 274 275 275 276 276 275 275 274 273 272 271 270 269 268 267 266
218 214 210 208 207 206 206 207 208 209 210 211 211 211 211 211 211 212 212 213 214 215 217 218 220 222 223 225 227 229 231 233 236 238 240 242 245 247 249 250 251 252 253 254 254 253 252 252 251 252 254 256 259 262 264 266 268 269 270 271 272 272 272 273 273 274 274 275 275 276 276 277 277 277 277 277 276 275 274 272 271 270 269 268 266 265
211 208 206 205 205 205 206 207 208 209 210 210 210 210 211 211 212 212 214 215 216 218 220 222 223 225 227 230 231 233 235 236 238 240 242 244 246 247 249 250 251 252 253 253 252 251 250 249 250 253 256 259 262 265 268 270 271 273 274 275 275 274 274 275 275 275 275 276 277 278 278 279 278 278 278 277 276 274 273 272 270 269 268 267 265 264
206 205 204 205 205 206 207 207 208 209 209 209 210 210 211 212 213 214 215 217 219 221 223 225 227 229 231 233 236 238 239 240 241 242 243 245 246 248 249 250 251 252 252 251 250 249 248 249 251 255 259 262 265 268 271 273 275 276 277 278 278 278 278 278 277 278 278 279 280 280 281 280 280 279 277 276 275 273 272 271 269 268 267 265 264 263
204 204 205 205 206 206 207 207 208 209 209 209 210 210 211 213 214 216 217 220 222 225 227 229 231 233 234 236 238 240 242 242 243 242 243 245 246 248 249 251 251 251 251 249 248 248 249 251 255 258 262 265 268 271 273 275 277 279 280 280 280 281 281 280 281 281 282 283 283 283 283 282 280 279 277 275 274 272 271 269 268 266 265 264 263 261
204 204 205 205 206 207 207 208 208 209 209 210 210 211 213 214 216 218 221 223 226 229 231 233 235 237 239 240 240 241 242 243 243 243 244 245 246 248 250 251 251 250 249 248 248 249 252 255 259 262 265 268 270 272 275 277 279 280 282 282 283 283 283 283 284 285 286 286 286 286 285 283 281 279 276 274 272 270 269 267 266 265 264 263 262 260
205 205 206 206 207 207 207 208 208 209 209 210 211 213 215 218 220 223 226 229 231 233 236 237 239 240 242 243 243 243 243 243 244 245 245 246 247 249 250 251 250 249 248 247 248 251 255 258 262 265 268 270 272 274 276 278 280 282 283 284 284 285 285 285 286 287 288 288 289 288 287 284 281 278 275 272 270 269 267 266 264 263 263 262 261 260
206 206 207 207 207 207 207 208 208 209 210 211 213 216 219 222 225 228 231 234 236 238 239 241 242 243 244 244 244 244 244 244 245 246 247 248 249 250 251 250 249 248 247 248 250 254 257 261 264 267 270 271 273 275 276 279 281 282 284 285 285 286 286 286 287 287 288 289 289 289 287 285 282 278 274 271 269 267 266 265 264 263 262 262 261 260
207 207 207 207 207 206 207 207 208 209 211 213 216 220 223 227 230 233 235 238 239 241 242 243 243 244 244 245 245 245 245 245 246 247 248 249 250 250 250 249 248 247 248 250 253 256 260 263 266 268 270 272 274 275 277 280 281 283 284 285 285 286 286 287 287 288 288 289 290 289 288 285 281 277 274 271 268 266 265 264 264 263 262 262 261 261
207 207 206 206 206 206 207 208 209 212 214 218 221 225 228 231 234 236 238 240 241 242 243 244 244 244 245 245 245 246 246 246 247 248 249 250 250 250 249 248 248 249 251 253 257 260 262 265 267 269 271 273 274 276 278 280 282 283 284 285 286 286 286 286 287 287 288 289 290 289 288 285 281 277 273 270 268 267 265 265 264 263 263 263 262 262
206 206 206 206 206 207 208 210 213 216 219 223 226 229 232 234 236 238 239 241 242 242 243 244 244 245 245 245 246 246 246 246 247 248 248 248 248 248 247 247 248 250 253 256 259 262 264 267 269 270 272 273 275 277 279 281 282 284 285 285 286 286 286 286 287 287 288 289 290 290 288 285 282 278 274 270 268 267 266 265 264 264 264 263 263 262
206 206 206 207 208 209 212 215 218 221 224 227 230 232 234 236 237 239 240 241 242 243 243 244 244 245 245 245 246 246 246 246 246 247 248 248 247 247 247 248 250 252 255 258 261 263 265 267 270 272 273 274 275 277 278 281 282 284 285 285 285 285 285 286 286 287 288 289 290 290 288 286 282 278 274 271 268 266 266 265 265 264 264 264 263 263
Height
3067 3067 3067 3068 3068 3067 3067 3067 3068 3067 3067 3067 3067 3067 3067 3067 3067 3067 3067 3067 3067 3067 3067 3067 3067 3067 3067 3067 3067 3067 3067 3067 3068 3068 3068 3068 3068 3068 3068 3068 3068 3068 3067 3067 3067 3067 3067 3066 3066 3066 3066 3066 3066 3066 3066 3066 3066 3067 3067 3067 3067 3068 3068 3069 3069 3070 3070 3071 3071 3071 3072 3071 3071 3071 3071 3071 3071 3072 3072 3072 3072 3073 3073 3073 3073 3073
3064 3064 3064 3065 3065 3065 3064 3065 3065 3065 3065 3065 3065 3065 3065 3065 3065 3065 3065 3065 3065 3065 3065 3064 3064 3064 3064 3064 3065 3065 3065 3065 3065 3066 3066 3066 3066 3066 3066 3066 3066 3066 3065 3065 3065 3065 3065 3064 3064 3064 3064 3064 3064 3064 3064 3064 3065 3065 3065 3066 3066 3067 3067 3067 3068 3068 3069 3069 3070 3070 3070 3070 3070 3070 3070 3070 3070 3070 3071 3071 3071 3071 3072 3072 3072 3072
3062 3062 3062 3062 3062 3062 3062 3062 3062 3063 3062 3062 3062 3062 3062 3062 3062 3062 3062 3062 3062 3062 3062 3062 3062 3062 3062 3062 3063 3063 3063 3063 3063 3063 3063 3063 3063 3063 3064 3064 3064 3063 3063 3063 3063 3063 3063 3062 3062 3062 3062 3062 3062 3062 3062 3063 3063 3063 3064 3064 3064 3065 3065 3066 3066 3067 3067 3067 3068 3068 3068 3068 3068 3068 3068 3068 3068 3069 3069 3069 3070 3070 3070 3070 3070 3071
3060 3059 3059 3060 3060 3060 3059 3060 3060 3060 3060 3060 3060 3060 3060 3060 3060 3060 3060 3060 3060 3060 3060 3060 3060 3060 3060 3060 3060 3061 3061 3061 3061 3061 3061 3061 3061 3061 3062 3062 3062 3061 3061 3061 3061 3061 3061 3061 3060 3060 3060 3060 3060 3061 3061 3061 3061 3062 3062 3062 3063 3063 3064 3064 3065 3065 3066 3066 3066 3067 3067 3067 3067 3067 3067 3067 3067 3067 3067 3068 3068 3068 3068 3069 3069 3069
3057 3057 3057 3057 3057 3057 3057 3057 3057 3057 3057 3057 3057 3057 3057 3057 3057 3057 3057 3057 3057 3057 3057 3057 3057 3057 3057 3058 3058 3058 3059 3059 3059 3059 3058 3058 3059 3059 3059 3059 3059 3059 3059 3059 3059 3059 3058 3058 3058 3058 3058 3058 3059 3059 3059 3059 3060 3060 3061 3061 3061 3062 3062 3063 3063 3063 3064 3064 3065 3065 3065 3065 3065 3065 3065 3065 3066 3066 3066 3066 3067 3067 3067 3067 3067 3068
3055 3055 3055 3055 3054 3054 3055 3055 3055 3055 3055 3055 3055 3055 3054 3054 3054 3055 3055 3055 3055 3055 3055 3055 3055 3055 3055 3056 3056 3056 3057 3057 3057 3056 3056 3056 3057 3057 3057 3057 3057 3057 3057 3057 3057 3057 3057 3057 3056 3057 3057 3057 3057 3057 3057 3058 3058 3058 3059 3059 3060 3060 3061 3061 3062 3062 3062 3062 3063 3063 3063 3063 3063 3063 3064 3064 3064 3064 3064 3065 3065 3065 3066 3066 3066 3066
3053 3053 3053 3052 3052 3052 3052 3052 3052 3052 3052 3052 3052 3052 3052 3052 3052 3052 3052 3052 3053 3053 3053 3053 3053 3053 3053 3054 3054 3054 3054 3054 3054 3054 3054 3054 3054 3054 3055 3055 3055 3055 3055 3055 3055 3055 3054 3054 3054 3055 3055 3055 3055 3056 3056 3056 3057 3057 3057 3058 3058 3059 3059 3060 3060 3060 3061 3061 3061 3061 3062 3062 3062 3062 3062 3062 3062 3063 3063 3063 3063 3064 3064 3064 3064 3065
3051 3051 3051 3050 3050 3049 3049 3049 3049 3049 3049 3049 3049 3049 3049 3049 3049 3050 3050 3050 3050 3051 3051 3051 3051 3051 3052 3052 3052 3052 3052 3052 3052 3052 3052 3052 3052 3052 3052 3052 3052 3052 3052 3052 3052 3052 3052 3052 3053 3053 3053 3053 3054 3054 3054 3055 3055 3056 3056 3057 3057 3057 3058 3058 3058 3059 3059 3059 3059 3060 3060 3060 3060 3060 3061 3061 3061 3061 3062 3062 3062 3062 3062 3063 3063 3063
3048 3048 3048 3048 3047 3047 3047 3047 3047 3047 3047 3047 3046 3046 3046 3047 3047 3047 3047 3048 3048 3048 3049 3049 3049 3049 3049 3049 3050 3049 3049 3049 3049 3049 3049 3049 3050 3050 3050 3050 3050 3050 3050 3051 3051 3051 3051 3051 3051 3051 3051 3052 3052 3052 3053 3053 3054 3054 3055 3055 3056 3056 3056 3057 3057 3057 3057 3057 3058 3058 3058 3058 3058 3059 3059 3059 3059 3060 3060 3060 3061 3061 3061 3061 3062 3062
3046 3046 3046 3045 3045 3045 3045 3044 3044 3045 3045 3044 3044 3044 3044 3044 3044 3045 3045 3046 3046 3047 3047 3047 3047 3047 3047 3047 3047 3047 3047 3047 3047 3047 3047 3047 3047 3048 3048 3048 3048 3048 3048 3048 3048 3049 3049 3049 3049 3049 3050 3050 3050 3051 3051 3052 3052 3052 3053 3053 3054 3054 3055 3055 3055 3056 3056 3056 3056 3056 3057 3057 3057 3057 3057 3058 3058 3058 3058 3059 3059 3059 3059 3060 3060 3060
3043 3043 3043 3042 3042 3042 3042 3042 3042 3042 3042 3042 3042 3042 3042 3042 3042 3042 3043 3044 3044 3045 3045 3044 3044 3044 3045 3045 3045 3045 3045 3045 3044 3044 3045 3045 3045 3046 3046 3046 3046 3046 3046 3046 3047 3047 3047 3047 3047 3048 3048 3048 3049 3049 3050 3050 3051 3051 3052 3052 3052 3052 3053 3053 3053 3054 3054 3054 3054 3055 3055 3055 3055 3056 3056 3056 3056 3057 3057 3057 3057 3058 3058 3058 3058 3059
3041 3041 3040 3040 3040 3039 3039 3039 3039 3039 3039 3039 3039 3039 3039 3040 3040 3040 3041 3042 3042 3042 3042 3042 3042 3042 3042 3042 3042 3042 3042 3042 3042 3042 3042 3043 3043 3043 3043 3043 3044 3044 3044 3044 3045 3045 3045 3045 3046 3046 3046 3047 3047 3047 3048 3048 3049 3049 3050 3050 3051 3051 3051 3052 3052 3052 3052 3052 3053 3053 3053 3053 3054 3054 3054 3055 3055 3055 3055 3056 3056 3056 3056 3057 3057 3057
3038 3038 3038 3037 3037 3037 3037 3037 3037 3037 3036 3037 3037 3037 3037 3037 3038 3038 3038 3039 3040 3040 3040 3040 3040 3040 3040 3040 3040 3040 3040 3040 3040 3040 3040 3041 3041 3041 3041 3042 3042 3042 3042 3042 3043 3043 3043 3043 3044 3044 3045 3045 3045 3046 3046 3047 3047 3048 3048 3048 3049 3049 3049 3050 3050 3050 3051 3051 3051 3051 3052 3052 3052 3052 3052 3053 3053 3053 3054 3054 3054 3054 3055 3055 3055 3056
3036 3036 3035 3035 3034 3034 3034 3034 3035 3035 3035 3035 3035 3035 3035 3035 3035 3036 3036 3036 3037 3037 3038 3038 3038 3038 3038 3038 3038 3037 3038 3038 3038 3038 3038 3039 3039 3039 3039 3039 3040 3040 3040 3041 3041 3041 3042 3042 3042 3042 3043 3043 3044 3044 3044 3045 3045 3046 3046 3047 3047 3047 3048 3048 3048 3048 3049 3049 3049 3050 3050 3050 3050 3051 3051 3051 3052 3052 3052 3052 3052 3053 3053 3053 3054 3054
3033 3033 3032 3032 3032 3032 3032 3032 3032 3032 3032 3033 3033 3032 3032 3032 3032 3033 3033 3034 3034 3035 3035 3035 3035 3036 3036 3036 3036 3036 3036 3036 3036 3036 3037 3037 3037 3037 3037 3037 3038 3038 3038 3039 3039 3039 3040 3040 3041 3041 3041 3042 3042 3042 3043 3043 3044 3044 3044 3045 3045 3046 3046 3046 3047 3047 3047 3047 3048 3048 3048 3048 3049 3049 3049 3050 3050 3050 3051 3051 3051 3051 3052 3052 3052 3052
3031 3030 3030 3030 3030 3030 3030 3030 3030 3030 3030 3030 3030 3030 3030 3030 3030 3031 3031 3031 3032 3032 3032 3033 3033 3033 3034 3034 3034 3034 3034 3034 3034 3034 3034 3035 3035 3035 3035 3036 3036 3037 3037 3037 3037 3038 3038 3038 3039 3039 3040 3040 3040 3041 3041 3041 3042 3042 3043 3043 3043 3044 3044 3044 3045 3045 3045 3046 3046 3046 3047 3047 3047 3047 3048 3048 3048 3048 3049 3049 3049 3050 3050 3050 3050 3051
3028 3028 3027 3027 3027 3027 3027 3027 3027 3027 3027 3027 3027 3028 3028 3028 3028 3028 3029 3029 3029 3030 3030 3030 3031 3031 3031 3032 3032 3032 3032 3031 3032 3032 3032 3032 3033 3033 3033 3034 3034 3035 3035 3035 3036 3036 3037 3037 3037 3037 3038 3038 3039 3039 3039 3040 3040 3041 3041 3041 3042 3042 3042 3043 3043 3043 3044 3044 3044 3045 3045 3045 3046 3046 3046 3047 3047 3047 3047 3047 3047 3048 3048 3048 3048 3049
3025 3025 3025 3025 3025 3025 3025 3025 3025 3025 3025 3025 3025 3025 3026 3026 3026 3026 3026 3027 3027 3027 3027 3028 3028 3028 3029 3029 3029 3029 3029 3029 3029 3030 3030 3031 3031 3031 3032 3032 3032 3033 3033 3034 3034 3034 3035 3035 3036 3036 3036 3037 3037 3037 3037 3038 3038 3039 3039 3039 3040 3040 3041 3041 3041 3042 3042 3042 3042 3043 3043 3043 3044 3044 3044 3045 3045 3045 3045 3046 3046 3046 3046 3047 3047 3047
3023 3023 3023 3022 3022 3022 3022 3022 3022 3022 3022 3023 3023 3023 3023 3024 3024 3024 3024 3025 3025 3025 3025 3025 3026 3026 3026 3027 3027 3027 3027 3027 3027 3028 3028 3029 3029 3029 3030 3030 3031 3032 3032 3032 3032 3033 3033 3033 3034 3034 3035 3035 3035 3036 3036 3036 3037 3037 3037 3037 3038 3038 3039 3039 3039 3040 3040 3040 3041 3041 3041 3042 3042 3042 3042 3043 3043 3043 3043 3044 3044 3044 3044 3045 3045 3045
3020 3020 3020 3020 3019 3019 3019 3020 3020 3020 3020 3020 3021 3021 3022 3022 3022 3022 3022 3022 3022 3022 3022 3023 3023 3023 3024 3024 3024 3024 3024 3025 3025 3026 3027 3027 3027 3028 3028 3029 3029 3030 3030 3031 3031 3031 3032 3032 3032 3033 3033 3033 3034 3034 3034 3035 3035 3035 3036 3036 3036 3037 3037 3037 3037 3038 3038 3038 3039 3039 3039 3040 3040 3040 3041 3041 3041 3042 3042 3042 3042 3042 3042 3043 3043 3043
3017 3017 3017 3017 3017 3017 3017 3017 3017 3017 3018 3018 3019 3019 3020 3020 3020 3020 3020 3020 3020 3020 3020 3021 3021 3021 3022 3022 3022 3022 3022 3023 3024 3024 3025 3025 3026 3026 3027 3027 3028 3028 3028 3029 3029 3029 3030 3030 3031 3031 3032 3032 3032 3032 3033 3033 3033 3034 3034 3034 3035 3035 3035 3036 3036 3036 3037 3037 3037 3037 3037 3038 3038 3038 3039 3039 3039 3040 3040 3040 3040 3041 3041 3041 3041 3042
3015 3015 3014 3014 3014 3014 3014 3015 3015 3015 3015 3016 3017 3017 3017 3017 3018 3018 3018 3018 3018 3018 3018 3018 3019 3019 3020 3020 3020 3020 3021 3021 3022 3022 3023 3024 3024 3025 3025 3026 3026 3027 3027 3027 3027 3028 3028 3029 3029 3029 3030 3030 3031 3031 3031 3032 3032 3032 3032 3032 3033 3033 3033 3034 3034 3034 3035 3035 3035 3036 3036 3036 3037 3037 3037 3037 3037 3038 3038 3038 3038 3039 3039 3039 3039 3040
3012 3012 3012 3012 3012 3012 3012 3012 3012 3013 3013 3014 3014 3014 3015 3015 3015 3015 3015 3016 3016 3016 3016 3017 3017 3017 3018 3018 3018 3019 3019 3020 3020 3021 3022 3022 3022 3023 3024 3024 3025 3025 3025 3026 3026 3026 3027 3027 3027 3028 3028 3029 3029 3029 3030 3030 3030 3030 3031 3031 3031 3032 3032 3032 3032 3033 3033 3033 3033 3034 3034 3034 3035 3035 3035 3036 3036 3036 3036 3036 3037 3037 3037 3037 3037 3038
3009 3009 3009 3009 3009 3009 3009 3009 3010 3010 3011 3011 3012 3012 3012 3012 3013 3013 3013 3013 3013 3014 3014 3015 3015 3015 3016 3016 3017 3017 3018 3018 3019 3019 3020 3021 3021 3022 3022 3022 3023 3023 3024 3024 3024 3025 3025 3026 3026 3026 3027 3027 3027 3028 3028 3028 3028 3029 3029 3029 3030 3030 3030 3031 3031 3031 3031 3032 3032 3032 3032 3032 3033 3033 3033 3034 3034 3034 3034 3035 3035 3035 3035 3035 3036 3036
3006 3006 3006 3006 3006 3006 3006 3007 3007 3007 3008 3008 3009 3009 3009 3010 3010 3011 3011 3011 3012 3012 3012 3012 3013 3013 3014 3015 3015 3016 3016 3017 3017 3018 3018 3019 3020 3020 3021 3021 3022 3022 3022 3022 3023 3023 3024 3024 3024 3025 3025 3026 3026 3026 3026 3027 3027 3027 3027 3028 3028 3028 3028 3029 3029 3029 3030 3030 3030 3030 3031 3031 3031 3032 3032 3032 3032 3032 3032 3033 3033 3033 3033 3033 3034 3034
3003 3003 3003 3003 3003 3003 3004 3004 3004 3005 3005 3006 3006 3007 3007 3007 3008 3008 3009 3009 3010 3010 3010 3011 3011 3012 3012 3013 3013 3014 3015 3015 3016 3017 3017 3018 3018 3019 3019 3020 3020 3020 3021 3021 3022 3022 3022 3023 3023 3023 3024 3024 3024 3025 3025 3025 3025 3026 3026 3026 3026 3027 3027 3027 3027 3028 3028 3028 3028 3029 3029 3029 3029 3030 3030 3030 3030 3031 3031 3031 3031 3031 3031 3032 3032 3032
3000 3000 3000 3000 3001 3001 3001 3002 3002 3002 3002 3003 3004 3004 3005 3006 3006 3007 3007 3007 3007 3008 3008 3009 3010 3010 3011 3012 3012 3013 3013 3014 3015 3015 3016 3016 3017 3017 3017 3018 3018 3019 3019 3020 3020 3021 3021 3022 3022 3022 3022 3022 3023 3023 3023 3023 3024 3024 3024 3025 3025 3025 3025 3026 3026 3026 3027 3027 3027 3027 3027 3027 3028 3028 3028 3028 3028 3029 3029 3029 3029 3029 3029 3030 3030 3030
2997 2997 2997 2998 2998 2998 2998 2999 2999 3000 3000 3001 3002 3002 3003 3003 3004 3005 3005 3005 3006 3006 3007 3007 3008 3009 3009 3010 3011 3011 3012 3012 3013 3014 3014 3015 3015 3016 3016 3017 3017 3017 3018 3018 3019 3019 3020 3020 3021 3021 3021 3021 3021 3022 3022 3022 3022 3022 3023 3023 3023 3023 3024 3024 3024 3025 3025 3025 3025 3025 3026 3026 3026 3026 3026 3027 3027 3027 3027 3027 3027 3027 3027 3028 3028 3028
2994 2995 2995 2995 2995 2996 2996 2996 2997 2997 2998 2999 3000 3000 3001 3002 3002 3002 3003 3003 3004 3005 3005 3006 3007 3007 3008 3009 3009 3010 3011 3011 3012 3012 3013 3013 3014 3015 3015 3015 3016 3016 3017 3017 3017 3018 3018 3019 3019 3019 3019 3019 3020 3020 3020 3020 3021 3021 3021 3022 3022 3022 3022 3022 3023 3023 3023 3023 3023 3024 3024 3024 3024 3024 3024 3025 3025 3025 3025 3025 3025 3026 3026 3026 3026 3026
2992 2992 2992 2992 2993 2993 2993 2994 2995 2995 2996 2997 2997 2998 2999 2999 3000 3000 3001 3002 3002 3003 3004 3005 3005 3006 3007 3007 3008 3008 3009 3010 3010 3011 3012 3012 3013 3013 3013 3014 3014 3015 3015 3016 3016 3016 3017 3017 3017 3017 3018 3018 3018 3018 3019 3019 3019 3019 3020 3020 3020 3020 3021 3021 3021 3021 3021 3022 3022 3022 3022 3022 3022 3022 3022 3023 3023 3023 3023 3023 3023 3023 3024 3024 3024 3024
2989 2989 2990 2990 2990 2991 2991 2992 2992 2993 2994 2995 2995 2996 2996 2997 2998 2999 2999 3000 3001 3002 3002 3003 3004 3004 3005 3006 3007 3007 3008 3008 3009 3009 3010 3011 3011 3012 3012 3012 3013 3013 3014 3014 3014 3015 3015 3015 3016 3016 3016 3016 3017 3017 3017 3017 3017 3018 3018 3018 3018 3019 3019 3019 3019 3019 3020 3020 3020 3020 3020 3020 3020 3021 3021 3021 3021 3021 3022 3022 3022 3022 3022 3022 3022 3022
2986 2987 2987 2987 2988 2988 2989 2990 2991 2991 2992 2992 2993 2994 2994 2995 2996 2997 2998 2999 2999 3000 3001 3002 3002 3003 3004 3005 3005 3006 3007 3007 3007 3008 3008 3009 3010 3010 3011 3011 3012 3012 3012 3012 3013 3013 3014 3014 3014 3014 3014 3015 3015 3015 3015 3016 3016 3016 3016 3017 3017 3017 3017 3017 3017 3017 3018 3018 3018 3018 3018 3018 3019 3019 3019 3019 3019 3019 3019 3020 3020 3020 3020 3020 3020 3020
2983 2984 2984 2985 2986 2986 2987 2988 2988 2989 2990 2990 2991 2992 2992 2993 2994 2995 2996 2997 2998 2999 2999 3000 3001 3002 3003 3003 3004 3005 3005 3006 3006 3006 3007 3007 3008 3008 3009 3009 3010 3010 3011 3011 3011 3012 3012 3012 3012 3012 3012 3013 3013 3013 3013 3014 3014 3014 3014 3015 3015 3015 3015 3015 3016 3016 3016 3016 3016 3016 3017 3017 3017 3017 3017 3017 3017 3017 3017 3017 3017 3017 3017 3017 3017 3017
2981 2981 2982 2982 2983 2984 2985 2986 2987 2987 2987 2988 2989 2990 2991 2992 2993 2994 2995 2995 2996 2997 2998 2999 3000 3001 3001 3002 3003 3003 3003 3004 3004 3005 3005 3006 3007 3007 3007 3008 3008 3009 3009 3009 3009 3010 3010 3010 3010 3011 3011 3011 3011 3012 3012 3012 3012 3012 3013 3013 3013 3013 3013 3013 3014 3014 3014 3014 3014 3014 3014 3015 3015 3015 3015 3015 3015 3015 3015 3016 3016 3016 3016 3015 3015 3015
2978 2979 2980 2980 2981 2982 2983 2983 2984 2985 2986 2987 2988 2989 2990 2991 2991 2992 2993 2994 2995 2996 2997 2998 2998 2999 3000 3001 3001 3002 3002 3002 3003 3003 3004 3005 3005 3005 3006 3006 3007 3007 3007 3007 3008 3008 3008 3008 3009 3009 3009 3009 3010 3010 3010 3010 3011 3011 3011 3011 3011 3012 3012 3012 3012 3012 3012 3012 3012 3012 3012 3013 3013 3013 3013 3013 3013 3013 3013 3013 3013 3013 3013 3013 3013 3013
2976 2976 2977 2978 2979 2980 2981 2981 2982 2983 2984 2985 2986 2987 2988 2989 2990 2991 2992 2992 2993 2994 2995 2996 2997 2997 2998 2999 2999 3000 3001 3001 3001 3002 3002 3003 3003 3004 3004 3004 3005 3005 3005 3006 3006 3006 3007 3007 3007 3007 3007 3007 3008 3008 3008 3009 3009 3009 3009 3009 3010 3010 3010 3010 3010 3010 3010 3010 3010 3011 3011 3011 3011 3011 3011 3011 3011 3011 3011 3011 3011 3011 3011 3011 3011 3011
2973 2974 2975 2976 2977 2978 2978 2979 2980 2982 2982 2984 2985 2986 2987 2987 2988 2989 2990 2991 2992 2993 2994 2994 2995 2996 2997 2997 2998 2998 2999 2999 3000 3000 3001 3001 3002 3002 3002 3002 3003 3003 3003 3004 3004 3004 3005 3005 3005 3005 3006 3006 3006 3006 3007 3007 3007 3007 3008 3008 3008 3008 3008 3008 3008 3008 3008 3008 3008 3008 3008 3008 3008 3009 3009 3009 3009 3009 3009 3009 3009 3008 3008 3008 3008 3008
2971 2972 2973 2974 2975 2976 2977 2978 2979 2980 2981 2982 2983 2984 2985 2986 2987 2988 2989 2990 2991 2991 2992 2993 2994 2994 2995 2995 2996 2997 2997 2997 2998 2998 2999 2999 3000 3000 3001 3001 3001 3002 3002 3002 3002 3002 3003 3003 3003 3003 3003 3004 3004 3004 3005 3005 3005 3006 3006 3006 3006 3006 3006 3006 3006 3007 3007 3007 3007 3007 3006 3006 3006 3006 3006 3007 3007 3007 3006 3006 3006 3006 3006 3006 3006 3006
2969 2970 2971 2972 2973 2974 2975 2977 2977 2979 2980 2981 2982 2983 2984 2985 2986 2987 2987 2988 2989 2990 2991 2992 2992 2993 2993 2994 2994 2995 2995 2996 2996 2997 2997 2997 2998 2998 2999 2999 2999 3000 3000 3000 3000 3001 3001 3001 3001 3002 3002 3002 3002 3003 3003 3003 3003 3004 3004 3004 3004 3004 3004 3004 3004 3005 3005 3005 3004 3004 3004 3004 3004 3004 3004 3004 3004 3004 3004 3004 3003 3003 3003 3003 3003 3003
2967 2968 2969 2970 2972 2973 2974 2975 2976 2977 2979 2980 2981 2982 2982 2983 2984 2985 2986 2987 2987 2988 2989 2990 2991 2991 2992 2992 2993 2993 2994 2994 2995 2995 2996 2996 2996 2997 2997 2997 2998 2998 2998 2998 2999 2999 2999 2999 2999 3000 3000 3000 3001 3001 3001 3001 3002 3002 3002 3002 3002 3002 3003 3003 3003 3003 3002 3002 3002 3002 3002 3002 3002 3002 3001 3001 3001 3001 3001 3001 3001 3001 3001 3001 3001 3001
2966 2967 2968 2969 2970 2972 2973 2974 2975 2976 2977 2978 2979 2980 2981 2982 2983 2984 2984 2985 2986 2987 2987 2988 2989 2990 2990 2991 2991 2992 2992 2992 2993 2993 2994 2994 2994 2995 2995 2996 2996 2996 2997 2997 2997 2997 2997 2997 2998 2998 2998 2998 2999 2999 2999 2999 2999 3000 3000 3000 3000 3000 3001 3001 3001 3001 3001 3001 3000 3000 3000 3000 2999 2999 2999 2998 2998 2998 2998 2998 2998 2998 2998 2998 2998 2998
2964 2965 2966 2967 2969 2970 2972 2972 2973 2975 2976 2977 2978 2979 2980 2981 2981 2982 2983 2984 2985 2985 2986 2987 2987 2988 2989 2989 2990 2990 2991 2991 2991 2992 2992 2992 2993 2993 2993 2994 2994 2994 2995 2995 2995 2995 2996 2996 2996 2996 2997 2997 2997 2997 2997 2997 2997 2997 2997 2998 2998 2998 2998 2999 2999 2999 2998 2998 2998 2998 2997 2997 2997 2997 2996 2996 2996 2995 2995 2995 2995 2995 2995 2995 2995 2996
2962 2964 2965 2966 2967 2969 2970 2971 2972 2973 2974 2975 2976 2977 2978 2979 2980 2981 2982 2982 2983 2984 2985 2985 2986 2987 2987 2987 2988 2988 2989 2989 2990 2990 2990 2991 2991 2991 2992 2992 2992 2992 2993 2993 2993 2993 2994 2994 2994 2995 2995 2995 2995 2995 2995 2995 2995 2995 2995 2996 2996 2996 2996 2996 2996 2996 2996 2996 2996 2996 2995 2995 2994 2994 2993 2993 2993 2992 2992 2992 2992 2992 2992 2992 2993 2993
2961 2962 2964 2965 2966 2967 2969 2970 2971 2972 2973 2974 2975 2976 2977 2977 2978 2979 2980 2981 2982 2982 2983 2983 2984 2985 2985 2986 2986 2987 2987 2987 2988 2988 2988 2989 2989 2989 2990 2990 2990 2991 2991 2991 2992 2992 2992 2992 2992 2993 2993 2993 2993 2993 2993 2993 2993 2993 2993 2993 2993 2993 2993 2994 2994 2994 2994 2994 2993 2993 2993 2992 2992 2991 2991 2990 2990 2990 2990 2990 2990 2990 2990 2990 2990 2990
2960 2961 2962 2964 2965 2966 2967 2968 2969 2970 2971 2972 2973 2974 2975 2976 2977 2978 2978 2979 2980 2980 2981 2982 2982 2983 2983 2984 2984 2984 2985 2986 2986 2986 2987 2987 2987 2987 2988 2988 2988 2989 2989 2990 2990 2990 2990 2990 2991 2991 2991 2991 2991 2991 2991 2991 2991 2991 2991 2991 2991 2991 2991 2991 2991 2991 2991 2991 2991 2991 2990 2990 2989 2989 2988 2988 2987 2987 2987 2987 2987 2987 2987 2987 2987 2988
2959 2960 2961 2962 2963 2965 2966 2967 2968 2969 2970 2971 2972 2973 2974 2975 2975 2976 2977 2977 2978 2978 2979 2980 2980 2981 2981 2982 2982 2982 2983 2983 2984 2984 2985 2985 2985 2986 2986 2986 2987 2987 2987 2988 2988 2988 2989 2989 2989 2989 2989 2989 2989 2989 2989 2989 2989 2989 2988 2988 2988 2988 2988 2988 2989 2989 2989 2988 2988 2988 2987 2987 2987 2986 2986 2985 2985 2985 2984 2984 2984 2984 2985 2985 2985 2985
2958 2959 2960 2961 2962 2963 2964 2965 2966 2967 2968 2969 2970 2971 2972 2973 2974 2974 2975 2975 2976 2977 2977 2977 2978 2979 2979 2980 2980 2981 2981 2982 2982 2982 2983 2983 2983 2984 2984 2984 2985 2985 2986 2986 2986 2986 2987 2987 2987 2987 2987 2987 2987 2987 2987 2987 2987 2987 2987 2986 2986 2986 2986 2986 2986 2986 2986 2986 2986 2985 2985 2984 2984 2983 2983 2983 2982 2982 2982 2982 2982 2982 2982 2982 2983 2983
2956 2957 2958 2960 2961 2962 2963 2964 2965 2966 2967 2967 2968 2969 2970 2971 2972 2972 2973 2973 2974 2974 2975 2976 2976 2977 2977 2977 2978 2979 2979 2980 2980 2980 2981 2981 2982 2982 2982 2982 2983 2983 2984 2984 2984 2984 2984 2985 2985 2985 2985 2985 2985 2985 2985 2985 2985 2984 2984 2984 2984 2984 2983 2983 2983 2984 2983 2983 2983 2983 2982 2982 2982 2981 2981 2980 2980 2980 2980 2980 2980 2980 2980 2980 2980 2981
2955 2956 2957 2958 2959 2960 2961 2962 2963 2964 2965 2966 2967 2967 2968 2969 2970 2970 2971 2971 2972 2972 2973 2973 2974 2975 2975 2976 2976 2977 2977 2978 2978 2978 2979 2979 2980 2980 2981 2981 2981 2982 2982 2982 2982 2982 2982 2982 2982 2982 2983 2983 2983 2983 2982 2982 2982 2982 2982 2982 2982 2981 2981 2981 2981 2981 2981 2981 2981 2980 2980 2980 2979 2979 2978 2978 2978 2978 2977 2977 2977 2977 2977 2978 2978 2978
2953 2954 2955 2957 2957 2959 2960 2961 2962 2962 2963 2964 2965 2966 2966 2967 2967 2968 2969 2969 2970 2971 2971 2972 2972 2973 2973 2974 2974 2975 2975 2976 2976 2977 2977 2977 2978 2978 2979 2979 2979 2980 2980 2980 2980 2981 2981 2981 2981 2980 2980 2980 2981 2981 2980 2980 2980 2980 2980 2979 2979 2979 2979 2978 2978 2978 2978 2978 2978 2978 2977 2977 2977 2976 2976 2976 2976 2976 2975 2975 2975 2975 2975 2976 2976 2976
2952 2953 2954 2955 2956 2957 2958 2959 2960 2961 2961 2962 2963 2963 2964 2965 2965 2966 2967 2967 2968 2969 2969 2970 2970 2971 2972 2972 2972 2973 2973 2974 2974 2975 2975 2976 2976 2977 2977 2977 2977 2977 2978 2978 2978 2978 2978 2979 2979 2978 2978 2978 2978 2978 2978 2978 2978 2977 2977 2977 2977 2976 2976 2976 2976 2976 2976 2976 2975 2975 2975 2975 2974 2974 2974 2974 2973 2973 2973 2973 2973 2973 2973 2973 2973 2974